Overview Statistics Trail Chart Weather Telemetry Raw packets
 

This is the latest recevied weather packets stored in our database for station/object N5JXS. If no packets are shown the sender has not sent any weather packets the latest 10 day(s).

<< 18 19 20 21 22 23 24 >>
Time Temp. Humidity Pressure Rain* Wind** Luminosity Snow
1788499110 18.33° C 48% 1023.5 hPa 0 mm - 0 W/m² -
1788498805 18.33° C 47% 1023.2 hPa 0 mm - 0 W/m² -
1788498500 18.33° C 47% 1023.7 hPa 0 mm - 0 W/m² -
1788498197 18.33° C 47% 1023.6 hPa 0 mm - 0 W/m² -
1788497896 17.78° C 47% 1023.6 hPa 0 mm - 0 W/m² -
1788497591 17.78° C 45% 1023.5 hPa 0 mm - 0 W/m² -
1788497286 17.78° C 44% 1023.7 hPa 0 mm - 0 W/m² -
1788496983 18.33° C 44% 1023.7 hPa 0 mm - 0 W/m² -
1788496678 18.33° C 44% 1023.7 hPa 0 mm - 0 W/m² -
1788496375 18.33° C 43% 1024 hPa 0 mm - 0 W/m² -
1788496069 18.33° C 42% 1023.9 hPa 0 mm - 0 W/m² -
1788495766 18.89° C 41% 1023.5 hPa 0 mm - 0 W/m² -
1788495465 18.89° C 41% 1023.7 hPa 0 mm - 0 W/m² -
1788495162 18.89° C 41% 1023.9 hPa 0 mm - 0 W/m² -
1788494879 18.89° C 40% 1023.7 hPa 0 mm - 0 W/m² -
1788494553 18.89° C 39% 1023.6 hPa 0 mm - 0 W/m² -
1788494249 18.89° C 38% 1023.9 hPa 0 mm - 0 W/m² -
1788493944 18.89° C 37% 1024 hPa 0 mm - 0 W/m² -
1788493642 18.89° C 36% 1023.5 hPa 0 mm - 0 W/m² -
1788493338 18.89° C 34% 1023.5 hPa 0 mm - 0 W/m² -
1788493034 18.89° C 34% 1023.5 hPa 0 mm - 0 W/m² -
1788492731 18.89° C 34% 1023.5 hPa 0 mm - 0 W/m² -
1788492427 19.44° C 33% 1023.4 hPa 0 mm - 0 W/m² -
1788492126 19.44° C 33% 1023.4 hPa 0 mm - 0 W/m² -
1788491826 20° C 33% 1023.2 hPa 0 mm - 0 W/m² -

* Rain latest hour (hover to see other rain measurements)
** Current wind speed in m/s (hover to see current wind gust speed)